Arar current weather conditions

sailwx.info

Wind from 180 at 9 knots

Air temperature 13.0° C
Dewpoint 8.0° C

Last reported at 2015-Feb-01 07:00 UTC.
Time now 2015-Feb-01 08:45 UTC

Location: N 30°54' E 041°08'.
View on Google Maps.

See reports from other nearby stations

  
Tides and Currents Weather Stations Pressure Air Temp Water Temp Dewpoint Dewpoint Depression Visibility Wind Speed Wind Dir Waves Ship Positions
date/time (UTC)wind fromknots sea level pressurealtimeterstation pressurevisibilityair tempwater tempwave heightnotes
2015-Feb-01 07:00 180 9 13.0
2015-Feb-01 06:00 190 5 9.0
2015-Feb-01 05:00 200 3 8.0
2015-Feb-01 04:00 210 5 6.0
2015-Feb-01 03:00 6.0
2015-Feb-01 02:00 6.0
2015-Feb-01 01:00 7.0
2015-Feb-01 00:00 140 2 8.0
2015-Jan-31 23:00 140 4 8.0
2015-Jan-31 22:00 110 2 8.0
2015-Jan-31 21:00 120 6 9.0
2015-Jan-31 20:00 090 6 9.0
2015-Jan-31 19:00 110 7 9.0
2015-Jan-31 18:00 110 8 10.0
2015-Jan-31 17:00 090 6 11.0
2015-Jan-31 16:00 100 8 13.0
2015-Jan-31 15:00 110 5 15.0
2015-Jan-31 14:00 120 5 17.0
2015-Jan-31 13:00 130 5 18.0
2015-Jan-31 12:00 110 2 18.0
2015-Jan-31 11:00 160 5 17.0
2015-Jan-31 10:00 120 7 16.0
2015-Jan-31 09:00 130 6 15.0
2015-Jan-31 08:00 120 8 14.0
2015-Jan-31 07:00 060 7 12.0
2015-Jan-31 06:00 310 4 8.0
2015-Jan-31 05:00 300 5 4.0
2015-Jan-31 04:00 270 4 4.0
2015-Jan-31 03:00 300 5 5.0
2015-Jan-31 02:00 280 3 5.0
2015-Jan-31 01:00 340 7 6.0
2015-Jan-31 00:00 340 8 7.0
2015-Jan-30 23:00 330 8 8.0
2015-Jan-30 22:00 310 9 8.0
2015-Jan-30 21:00 320 9 9.0
2015-Jan-30 20:00 320 9 10.0
2015-Jan-30 19:00 340 7 11.0
2015-Jan-30 18:00 320 10 13.0
2015-Jan-30 17:00 320 11 14.0
2015-Jan-30 16:00 310 7 15.0
2015-Jan-30 15:00 310 10 17.0
2015-Jan-30 14:00 300 16 19.0
2015-Jan-30 13:00 300 17 21.0
2015-Jan-30 12:00 290 12 22.0
2015-Jan-30 11:00 240 9 21.0
2015-Jan-30 10:00 220 9 19.0
2015-Jan-30 09:00 170 6 4.915.0
2015-Jan-30 08:00 150 8 4.914.0